#timestamp,LO_Frequency,Hit,StdDev 
1590174015.1,286046997.4,N
1590174016.0,286046997.4,N
1590174035.8,286046997.0,N
1590174055.6,286046995.1,Y
1590174075.5,286046997.0,P
1590174095.3,286046998.4,N
1590174115.2,286047000.8,N
1590174135.9,286047002.0,N
1590174155.7,286047003.9,N
1590174175.6,286047002.1,N
1590174195.4,286047003.7,N
1590174215.2,286047003.3,N
1590174235.1,286047001.9,N
1590174236.0,286047001.9,N
1590174255.8,286047001.9,N
1590174275.7,286047001.4,N
1590174295.5,286047001.8,N
1590174315.3,286047002.1,N
1590174335.2,286047003.8,N
1590174355.0,286047005.4,N
1590174355.9,286047005.4,N
1590174375.8,286047003.6,N
1590174395.6,286047002.2,N
1590174415.5,286047000.4,N
1590174435.3,286047002.4,N
1590174455.1,286047002.0,N
1590174475.9,286047001.6,N
1590174495.7,286047001.6,N
1590174515.5,286047002.2,N
1590174535.4,286047002.3,N
1590174555.2,286047002.2,N
1590174575.1,286047001.4,N
1590174576.0,286047001.4,N
1590174595.8,286047004.3,N
1590174615.6,286047003.8,N
1590174635.5,286047000.2,N
1590174655.3,286047000.2,N
1590174675.1,286047000.3,N
1590174695.9,286047002.4,N
1590174715.7,286046998.2,N
1590174735.6,286047000.5,N
1590174755.4,286046998.6,N
1590174775.2,286047001.2,N
1590174795.1,286046999.9,N
1590174796.0,286046999.9,N
1590174815.8,286047003.2,N
1590174835.7,286047002.3,N
1590174855.5,286047002.0,N
1590174875.3,286047004.4,N
1590174895.2,286047000.3,N
1590174915.0,286047000.4,N
1590174915.9,286047000.4,N
1590174935.8,286046999.4,N
1590174955.6,286047002.0,N
1590174975.4,286047000.1,N
1590174995.3,286047002.0,N
1590175015.1,286047001.3,N
1590175035.9,286047006.0,Y
1590175055.7,286047002.5,P
1590175075.6,286046999.8,N
1590175095.4,286047001.8,N
1590175115.2,286047001.3,N
1590175135.1,286047005.0,Y
1590175136.0,286047005.0,P
1590175155.8,286047003.9,N
1590175175.7,286047002.6,N
1590175195.5,286047000.6,N
1590175215.3,286047000.8,N
1590175235.2,286046999.7,N
1590175255.0,286046999.8,N
1590175255.9,286046999.8,N
1590175275.7,286047002.8,N
1590175295.6,286046998.1,N
1590175315.4,286046999.5,N
1590175335.3,286046996.5,N
1590175355.1,286046998.9,N
1590175356.0,286046998.9,N
1590175375.8,286046999.2,N
1590175395.7,286046998.6,N
1590175415.5,286046998.6,N
1590175435.4,286046999.6,N
1590175455.2,286046996.9,N
1590175475.0,286046995.5,N
1590175475.9,286046995.5,N
1590175495.8,286046994.9,N
1590175515.6,286046995.2,N
1590175535.5,286046994.9,N
1590175555.3,286046995.2,N
1590175575.1,286046995.6,N
1590175595.9,286046995.5,N
1590175615.7,286046996.3,N
1590175635.5,286046992.0,N
1590175655.4,286046994.4,N
1590175675.2,286046994.8,N
1590175695.1,286046994.0,N
1590175696.0,286046994.0,N
1590175715.8,286046993.7,N
1590175735.6,286046993.7,N
1590175755.5,286046992.0,Y
1590175775.3,286046994.9,P
1590175795.2,286046996.0,P
1590175815.9,286046994.0,P
1590175835.7,286046992.1,Y
1590175855.6,286046999.2,P
1590175875.4,286046999.2,N
1590175895.3,286046998.2,N
1590175915.1,286046998.1,N
1590175916.0,286046998.1,N
1590175935.8,286047000.3,N
1590175955.7,286047001.2,N
1590175975.7,286046996.6,N
1590175995.6,286046998.6,N
1590176015.4,286047000.6,N
1590176035.3,286047000.1,N
1590176055.1,286047001.9,N
1590176056.0,286047001.9,N
1590176075.8,286047001.3,N
1590176095.7,286047001.4,N
1590176115.5,286047004.0,N
1590176135.4,286046999.9,N
1590176155.2,286047000.9,N
1590176175.0,286047002.2,N
1590176175.9,286047002.2,N
1590176195.8,286047001.6,N
1590176215.6,286046999.8,N
1590176235.4,286046999.9,N
1590176255.3,286047000.1,N
1590176275.1,286047002.3,N
1590176295.9,286047002.6,N
1590176315.7,286047001.7,N
1590176335.5,286047000.2,N
1590176355.4,286047000.9,N
1590176375.2,286047002.6,N
1590176395.0,286046999.9,N
1590176396.0,286046999.9,N
1590176415.8,286047000.2,N
1590176435.6,286047002.0,N
1590176455.5,286047003.1,N
1590176475.3,286047005.6,Y
1590176495.1,286047002.8,P
1590176515.9,286047003.9,P
1590176535.7,286047004.2,P
1590176555.6,286047004.2,Y
1590176575.4,286047000.3,P
1590176595.2,286047000.2,N
1590176615.1,286046999.4,N
1590176616.0,286046999.4,N
1590176635.8,286046998.2,N
1590176655.7,286046996.7,N
1590176675.5,286046996.8,N
1590176695.4,286046999.4,N
1590176715.2,286046998.9,N
1590176735.0,286046998.8,N
1590176735.9,286046998.8,N
1590176755.8,286046998.6,N
1590176775.6,286046999.6,N
1590176795.5,286046999.8,N
1590176815.3,286047000.4,N
1590176835.1,286046998.6,N
1590176855.9,286046998.1,N
1590176875.7,286047001.1,N
1590176895.5,286047000.1,N
1590176915.4,286047002.3,N
1590176935.2,286047000.1,N
1590176955.1,286046998.1,N
1590176956.0,286046998.1,N
1590176975.8,286046999.0,N
1590176995.6,286047000.1,N
1590177015.5,286047000.0,N
1590177035.3,286047001.2,N
1590177055.1,286047002.7,N
1590177075.9,286047002.4,N
1590177095.7,286047000.5,N
1590177115.6,286047002.7,N
1590177135.4,286047003.5,N
1590177155.2,286047001.8,N
1590177175.1,286047002.6,N
1590177176.0,286047002.6,N
1590177195.8,286047002.8,N
1590177215.7,286047001.6,N
1590177235.5,286047002.6,N
1590177255.3,286047002.1,N
1590177275.2,286047003.1,N
1590177295.0,286047003.4,N
1590177295.9,286047003.4,N
1590177315.8,286047001.8,N
1590177335.6,286047000.5,N
1590177355.4,286047000.5,N
1590177375.3,286047000.7,N
1590177395.1,286047004.4,N
1590177415.8,286047000.0,N
1590177435.7,286047003.9,N
1590177455.5,286047003.5,N
1590177475.4,286047001.7,N
1590177495.2,286047001.7,N
1590177515.0,286047003.7,N
1590177515.9,286047003.7,N
1590177535.8,286046999.8,N
1590177555.6,286047000.3,N
1590177575.5,286047001.6,N
1590177595.3,286047001.9,N
